Weather History for Thermopolis, WY

Change the Weather History Date:

Tuesday, August 20, 2013

  Actual Average (KWRL) Record (KWRL)
Temperature  
Mean Temperature 73 °F 70 °F  
Max Temperature 78 °F 87 °F 102 °F (1973)
Min Temperature 68 °F 52 °F 43 °F (1964)
Degree Days  
Heating Degree Days 0 1  
Month to date heating degree days 4  
Since 1 June heating degree days 110  
Since 1 July heating degree days 17  
Cooling Degree Days 8 5  
Month to date cooling degree days 137  
Year to date cooling degree days 462  
Since 1 June cooling degree days 450  
Growing Degree Days 23 (Base 50)    
Moisture  
Dew Point 29 °F    
Average Humidity 20    
Maximum Humidity 33    
Minimum Humidity 12    
Precipitation  
Precipitation 0.00 in 0.01 in 0.38 in (1983)
Month to date precipitation 0.28  
Year to date precipitation 5.30  
Sea Level Pressure  
Sea Level Pressure 30.31 in    
Wind  
Wind Speed 9 mph (SSE)    
Max Wind Speed 17 mph    
Max Gust Speed 33 mph    
Visibility 10 miles    
Events Rain    
T = Trace of Precipitation, MM = Missing Value Source: NWS Daily Summary

Daily Weather History Graph

Daily Weather History Graph

Search for Another Location

Airport:

Trip Planner

Search our weather history database for the weather conditions in past years. The results will help you decide how hot, cold, wet, or windy it might be!

Date:

Astronomy

Aug. 20, 2013 Rise Set
Actual Time 6:23 AM MDT 8:07 PM MDT
Civil Twilight 5:53 AM MDT 8:38 PM MDT
Nautical Twilight 5:16 AM MDT 9:15 PM MDT
Astronomical Twilight 4:36 AM MDT 9:54 PM MDT
Moon 7:39 PM MDT (8/20) 5:58 AM MDT (8/20)
Length of Visible Light 14h 44m
Length of Day
13h 44m
Full, 100% of the Moon is Illuminated
Aug 20
Full
Aug 20
Full
Aug 28
Last Quarter
Sep 5
New
Sep 12
First Quarter

Hourly Weather History & Observations

Time (MDT) Temp. Dew Point Humidity Pressure Visibility Wind Dir Wind Speed Gust Speed Precip Events Conditions
12:15 AM 73.4 °F 21.2 °F 14% 30.30 in 10.0 mi NW 5.8 mph - N/A   Clear
12:35 AM 73.4 °F 21.2 °F 14% 30.31 in 10.0 mi WNW 4.6 mph - N/A   Clear
12:55 AM 75.2 °F 19.4 °F 12% 30.31 in 10.0 mi NNW 3.5 mph - N/A   Clear
1:15 AM 75.2 °F 19.4 °F 12% 30.31 in 10.0 mi NNW 3.5 mph - N/A   Clear
1:35 AM 75.2 °F 19.4 °F 12% 30.31 in 10.0 mi North 3.5 mph - N/A   Clear
1:55 AM 75.2 °F 19.4 °F 12% 30.31 in 10.0 mi North 3.5 mph - N/A   Clear
2:15 AM 73.4 °F 19.4 °F 13% 30.31 in 10.0 mi NNW 6.9 mph - N/A   Clear
2:35 AM 71.6 °F 21.2 °F 15% 30.30 in 10.0 mi NNW 8.1 mph - N/A   Clear
2:55 AM 71.6 °F 21.2 °F 15% 30.31 in 10.0 mi NNW 9.2 mph - N/A   Clear
3:15 AM 71.6 °F 21.2 °F 15% 30.31 in 10.0 mi NW 10.4 mph - N/A   Clear
3:35 AM 71.6 °F 21.2 °F 15% 30.30 in 10.0 mi NW 11.5 mph - N/A   Clear
3:55 AM 71.6 °F 21.2 °F 15% 30.31 in 10.0 mi NW 11.5 mph - N/A   Clear
4:15 AM 71.6 °F 19.4 °F 14% 30.30 in 10.0 mi NW 10.4 mph - N/A   Clear
4:35 AM 71.6 °F 19.4 °F 14% 30.30 in 10.0 mi NW 10.4 mph - N/A   Clear
4:55 AM 71.6 °F 19.4 °F 14% 30.30 in 10.0 mi NNW 9.2 mph - N/A   Clear
5:15 AM 71.6 °F 21.2 °F 15% 30.30 in 10.0 mi North 10.4 mph - N/A   Clear
5:35 AM 71.6 °F 17.6 °F 13% 30.30 in 10.0 mi NNW 13.8 mph - N/A   Scattered Clouds
5:55 AM 71.6 °F 19.4 °F 14% 30.31 in 10.0 mi NNW 9.2 mph - N/A   Mostly Cloudy
6:15 AM 71.6 °F 17.6 °F 13% 30.31 in 10.0 mi North 6.9 mph - N/A   Mostly Cloudy
6:35 AM 71.6 °F 28.4 °F 20% 30.32 in 10.0 mi WSW 17.3 mph 25.3 mph N/A   Mostly Cloudy
6:55 AM 71.6 °F 30.2 °F 22% 30.33 in 10.0 mi SSW 8.1 mph - N/A   Mostly Cloudy
7:15 AM 71.6 °F 32.0 °F 23% 30.33 in 10.0 mi SE 10.4 mph 31.1 mph N/A   Light Drizzle
7:35 AM 68.0 °F 26.6 °F 21% 30.34 in 10.0 mi WNW 16.1 mph - N/A   Mostly Cloudy
7:55 AM 69.8 °F 26.6 °F 20% 30.33 in 10.0 mi NNW 9.2 mph - N/A   Mostly Cloudy
8:15 AM 71.6 °F 28.4 °F 20% 30.34 in 10.0 mi West 6.9 mph - N/A   Overcast
8:35 AM 71.6 °F 33.8 °F 25% 30.34 in 10.0 mi WNW 12.7 mph 33.4 mph N/A Rain Light Rain
8:55 AM 73.4 °F 32.0 °F 22% 30.34 in 10.0 mi NNW 9.2 mph 16.1 mph N/A   Overcast
9:15 AM 73.4 °F 32.0 °F 22% 30.34 in 10.0 mi Calm Calm - N/A   Overcast
9:35 AM 73.4 °F 30.2 °F 20% 30.35 in 10.0 mi WNW 10.4 mph - N/A   Overcast
9:55 AM 71.6 °F 23.0 °F 16% 30.36 in 10.0 mi NW 11.5 mph - N/A   Mostly Cloudy
10:15 AM 71.6 °F 26.6 °F 19% 30.36 in 10.0 mi Calm Calm - N/A   Mostly Cloudy
10:35 AM 71.6 °F 28.4 °F 20% 30.36 in 10.0 mi Calm Calm - N/A   Overcast
10:55 AM 69.8 °F 28.4 °F 21% 30.36 in 10.0 mi SE 10.4 mph - N/A   Overcast
11:15 AM 69.8 °F 32.0 °F 25% 30.36 in 10.0 mi SE 8.1 mph - N/A   Mostly Cloudy
11:35 AM 71.6 °F 28.4 °F 20% 30.36 in 10.0 mi SE 6.9 mph - N/A   Mostly Cloudy
11:55 AM 69.8 °F 32.0 °F 25% 30.36 in 10.0 mi SSE 8.1 mph 23.0 mph N/A   Overcast
12:15 PM 68.0 °F 28.4 °F 23% 30.36 in 10.0 mi South 13.8 mph - N/A   Mostly Cloudy
12:35 PM 71.6 °F 30.2 °F 22% 30.35 in 10.0 mi SSE 15.0 mph 19.6 mph N/A   Mostly Cloudy
12:55 PM 71.6 °F 32.0 °F 23% 30.34 in 10.0 mi SSE 15.0 mph 19.6 mph N/A   Scattered Clouds
1:15 PM 69.8 °F 30.2 °F 23% 30.34 in 10.0 mi SSE 12.7 mph 21.9 mph N/A   Clear
1:35 PM 73.4 °F 33.8 °F 23% 30.33 in 10.0 mi SSE 16.1 mph 20.7 mph N/A   Clear
1:55 PM 75.2 °F 33.8 °F 22% 30.32 in 10.0 mi South 17.3 mph - N/A   Scattered Clouds
2:15 PM 73.4 °F 33.8 °F 23% 30.32 in 10.0 mi SSE 12.7 mph 17.3 mph N/A   Scattered Clouds
2:35 PM 77.0 °F 33.8 °F 21% 30.32 in 10.0 mi SSE 10.4 mph 18.4 mph N/A   Clear
2:55 PM 77.0 °F 33.8 °F 21% 30.32 in 10.0 mi SSE 12.7 mph 21.9 mph N/A   Clear
3:15 PM 77.0 °F 33.8 °F 21% 30.31 in 10.0 mi SSE 9.2 mph 19.6 mph N/A   Clear
3:35 PM 77.0 °F 33.8 °F 21% 30.30 in 10.0 mi SSE 13.8 mph - N/A   Scattered Clouds
3:55 PM 77.0 °F 33.8 °F 21% 30.30 in 10.0 mi SSE 8.1 mph - N/A   Scattered Clouds
4:15 PM 77.0 °F 33.8 °F 21% 30.29 in 10.0 mi SSE 6.9 mph - N/A   Scattered Clouds
4:35 PM 77.0 °F 33.8 °F 21% 30.29 in 10.0 mi ESE 8.1 mph - N/A   Scattered Clouds
4:55 PM 77.0 °F 33.8 °F 21% 30.28 in 10.0 mi SE 11.5 mph - N/A   Clear
5:15 PM 77.0 °F 32.0 °F 19% 30.28 in 10.0 mi SE 12.7 mph - N/A   Clear
5:35 PM 77.0 °F 33.8 °F 21% 30.28 in 10.0 mi SE 15.0 mph - N/A   Clear
5:55 PM 78.8 °F 33.8 °F 20% 30.28 in 10.0 mi SE 11.5 mph 16.1 mph N/A   Clear
6:15 PM 77.0 °F 33.8 °F 21% 30.27 in 10.0 mi ESE 17.3 mph - N/A   Clear
6:35 PM 77.0 °F 33.8 °F 21% 30.27 in 10.0 mi SE 16.1 mph - N/A   Clear
6:55 PM 77.0 °F 33.8 °F 21% 30.26 in 10.0 mi ESE 16.1 mph - N/A   Clear
7:15 PM 77.0 °F 33.8 °F 21% 30.26 in 10.0 mi SE 16.1 mph - N/A   Clear
7:35 PM 75.2 °F 35.6 °F 24% 30.27 in 10.0 mi SE 10.4 mph - N/A   Clear
7:55 PM 73.4 °F 35.6 °F 25% 30.27 in 10.0 mi SE 9.2 mph - N/A   Clear
8:15 PM 73.4 °F 35.6 °F 25% 30.28 in 10.0 mi SSE 13.8 mph 20.7 mph N/A   Clear
8:35 PM 73.4 °F 35.6 °F 25% 30.28 in 10.0 mi SSE 15.0 mph - N/A   Scattered Clouds
8:55 PM 73.4 °F 35.6 °F 25% 30.29 in 10.0 mi SSE 15.0 mph 20.7 mph N/A   Clear
9:15 PM 73.4 °F 35.6 °F 25% 30.29 in 10.0 mi SSE 10.4 mph - N/A   Clear
9:35 PM 73.4 °F 35.6 °F 25% 30.30 in 10.0 mi South 12.7 mph 17.3 mph N/A   Clear
9:55 PM 73.4 °F 33.8 °F 23% 30.29 in 10.0 mi SSE 12.7 mph 18.4 mph N/A   Clear
10:15 PM 73.4 °F 35.6 °F 25% 30.30 in 10.0 mi SSE 10.4 mph - N/A   Clear
10:35 PM 71.6 °F 35.6 °F 27% 30.30 in 10.0 mi South 10.4 mph - N/A   Clear
10:55 PM 71.6 °F 37.4 °F 29% 30.30 in 10.0 mi SSE 5.8 mph - N/A   Clear
11:15 PM 69.8 °F 37.4 °F 31% 30.30 in 10.0 mi SE 9.2 mph - N/A   Clear
11:35 PM 69.8 °F 37.4 °F 31% 30.30 in 10.0 mi SE 10.4 mph - N/A   Clear
11:55 PM 68.0 °F 37.4 °F 33% 30.30 in 10.0 mi SE 12.7 mph - N/A   Scattered Clouds